Lincoln, IL

9:24 AM CDT on March 26, 2017 (GMT -0500)
Lincoln

Weather History for KAAA - October, 2012

Change the Weather History Date:

Sunday, October 28, 2012

  Actual Average (KSPI) Record (KSPI)
Temperature  
Mean Temperature 42 °F -  
Max Temperature 51 °F 61 °F 84 °F (1927)
Min Temperature 34 °F 40 °F 20 °F (1925)
Degree Days  
Heating Degree Days 22    
Moisture  
Dew Point 32 °F    
Average Humidity 70    
Maximum Humidity 84    
Minimum Humidity 48    
Precipitation  
Precipitation 0.00 in - - ()
Sea Level Pressure  
Sea Level Pressure 30.25 in    
Wind  
Wind Speed 7 mph (North)    
Max Wind Speed 13 mph    
Max Gust Speed 20 mph    
Visibility 10 miles    
Events      
Averages and records for this station are not official NWS values.
T = Trace of Precipitation, MM = Missing Value Source: NWS Daily Summary

Daily Weather History Graph

Daily Weather History Graph

Search for Another Location

Airport or City:

Trip Planner

Search our weather history database for the weather conditions in past years. The results will help you decide how hot, cold, wet, or windy it might be!

Date:

Astronomy

Oct. 28, 2012 Rise Set
Actual Time 7:22 AM CDT 5:58 PM CDT
Civil Twilight 6:54 AM CDT 6:26 PM CDT
Nautical Twilight 6:22 AM CDT 6:58 PM CDT
Astronomical Twilight 5:51 AM CDT 7:30 PM CDT
Moon 5:16 PM CDT (10/28) 6:15 AM CDT (10/28)
Length of Visible Light 11h 32m
Length of Day
10h 36m
Waxing Gibbous, 99% of the Moon is Illuminated
Oct 28
Waxing Gibbous
Oct 29
Full
Nov 6
Last Quarter
Nov 13
New
Nov 20
First Quarter

Hourly Weather History & Observations

Time (CDT) Temp. Windchill Dew Point Humidity Pressure Visibility Wind Dir Wind Speed Gust Speed Precip Events Conditions
12:15 AM 35.1 °F 30.1 °F 29.7 °F 81% 30.26 in 10.0 mi North 5.8 mph - N/A   Clear
12:35 AM 35.6 °F 31.7 °F 30.2 °F 81% 30.26 in 10.0 mi NNW 4.6 mph - N/A   Clear
12:55 AM 35.1 °F 30.1 °F 29.8 °F 81% 30.26 in 10.0 mi North 5.8 mph - N/A   Clear
1:15 AM 35.6 °F 31.7 °F 30.2 °F 81% 30.26 in 10.0 mi NNW 4.6 mph - N/A   Clear
1:35 AM 35.6 °F 29.9 °F 30.0 °F 80% 30.26 in 10.0 mi NNW 6.9 mph - N/A   Clear
1:55 AM 35.1 °F 30.1 °F 30.0 °F 82% 30.26 in 10.0 mi NNW 5.8 mph - N/A   Clear
2:15 AM 34.5 °F 29.4 °F 30.2 °F 84% 30.26 in 10.0 mi NNW 5.8 mph - N/A   Clear
2:35 AM 34.3 °F 30.2 °F 29.8 °F 84% 30.25 in 10.0 mi North 4.6 mph - N/A   Clear
2:55 AM 34.2 °F 30.0 °F 29.7 °F 84% 30.25 in 10.0 mi NNW 4.6 mph - N/A   Clear
3:15 AM 34.7 °F 29.6 °F 29.8 °F 82% 30.25 in 10.0 mi NNW 5.8 mph - N/A   Clear
3:35 AM 34.7 °F 28.8 °F 29.7 °F 82% 30.25 in 10.0 mi NNW 6.9 mph - N/A   Clear
3:55 AM 34.7 °F 29.6 °F 29.7 °F 82% 30.25 in 10.0 mi NNW 5.8 mph - N/A   Clear
4:15 AM 34.7 °F 28.8 °F 29.3 °F 81% 30.25 in 10.0 mi North 6.9 mph - N/A   Clear
4:35 AM 34.0 °F 28.8 °F 29.1 °F 82% 30.25 in 10.0 mi North 5.8 mph - N/A   Clear
4:55 AM 34.2 °F 28.2 °F 28.9 °F 81% 30.25 in 10.0 mi North 6.9 mph - N/A   Clear
5:15 AM 34.0 °F 27.2 °F 28.9 °F 82% 30.25 in 10.0 mi North 8.1 mph - N/A   Clear
5:35 AM 34.7 °F 27.5 °F 28.8 °F 79% 30.25 in 10.0 mi North 9.2 mph - N/A   Scattered Clouds
5:55 AM 35.1 °F 28.6 °F 28.9 °F 78% 30.25 in 10.0 mi North 8.1 mph - N/A   Mostly Cloudy
6:15 AM 35.8 °F 30.1 °F 29.1 °F 77% 30.25 in 10.0 mi North 6.9 mph - N/A   Overcast
6:35 AM 36.0 °F 29.6 °F 29.3 °F 77% 30.25 in 10.0 mi North 8.1 mph - N/A   Mostly Cloudy
6:55 AM 36.5 °F 30.3 °F 29.8 °F 77% 30.25 in 10.0 mi North 8.1 mph - N/A   Mostly Cloudy
7:15 AM 36.7 °F 31.2 °F 30.2 °F 77% 30.25 in 10.0 mi NNW 6.9 mph - N/A   Overcast
7:35 AM 36.7 °F 32.9 °F 30.2 °F 77% 30.25 in 10.0 mi NNW 4.6 mph - N/A   Overcast
7:55 AM 37.4 °F 32.8 °F 30.2 °F 75% 30.26 in 10.0 mi North 5.8 mph - N/A   Overcast
8:15 AM 37.8 °F 34.2 °F 31.1 °F 77% 30.26 in 10.0 mi North 4.6 mph - N/A   Overcast
8:35 AM 39.9 °F 33.9 °F 32.2 °F 74% 30.26 in 10.0 mi North 9.2 mph - N/A   Mostly Cloudy
8:55 AM 40.8 °F 34.5 °F 32.2 °F 71% 30.26 in 10.0 mi NNE 10.4 mph - N/A   Mostly Cloudy
9:15 AM 41.2 °F 34.1 °F 33.6 °F 74% 30.26 in 10.0 mi NNE 12.7 mph 18.4 mph N/A   Scattered Clouds
9:35 AM 42.8 °F 36.6 °F 33.8 °F 70% 30.26 in 10.0 mi NNE 11.5 mph - N/A   Mostly Cloudy
9:55 AM 42.4 °F 36.1 °F 33.8 °F 71% 30.26 in 10.0 mi NNE 11.5 mph 18.4 mph N/A   Scattered Clouds
10:15 AM 45.9 °F 40.0 °F 36.1 °F 69% 30.26 in 10.0 mi NNE 12.7 mph 16.1 mph N/A   Mostly Cloudy
10:35 AM 46.6 °F - 36.0 °F 67% 30.26 in 10.0 mi NNE 11.5 mph - N/A   Overcast
10:55 AM 46.0 °F 41.0 °F 35.4 °F 66% 30.27 in 10.0 mi NNE 10.4 mph 19.6 mph N/A   Overcast
11:15 AM 46.6 °F - 35.1 °F 64% 30.27 in 10.0 mi NE 5.8 mph - N/A   Overcast
11:35 AM 48.2 °F - 36.0 °F 63% 30.26 in 10.0 mi NNE 10.4 mph - N/A   Overcast
11:55 AM 49.1 °F - 36.0 °F 61% 30.26 in 10.0 mi NNE 9.2 mph - N/A   Overcast
12:15 PM 48.9 °F - 35.8 °F 61% 30.26 in 10.0 mi NNE 9.2 mph - N/A   Overcast
12:35 PM 49.3 °F - 35.4 °F 59% 30.26 in 10.0 mi NE 6.9 mph - N/A   Overcast
12:55 PM 48.9 °F - 35.2 °F 59% 30.25 in 10.0 mi North 5.8 mph - N/A   Overcast
1:15 PM 49.3 °F - 35.8 °F 60% 30.25 in 10.0 mi North 8.1 mph - N/A   Overcast
1:35 PM 48.9 °F - 35.8 °F 61% 30.25 in 10.0 mi North 9.2 mph - N/A   Overcast
1:55 PM 49.5 °F - 36.5 °F 61% 30.24 in 10.0 mi NNE 8.1 mph - N/A   Overcast
2:15 PM 50.5 °F - 36.3 °F 58% 30.24 in 10.0 mi NE 8.1 mph - N/A   Mostly Cloudy
2:35 PM 48.7 °F - 34.0 °F 57% 30.23 in 10.0 mi North 10.4 mph 17.3 mph N/A   Mostly Cloudy
2:55 PM 48.9 °F - 34.5 °F 58% 30.23 in 10.0 mi NNE 9.2 mph - N/A   Overcast
3:15 PM 50.2 °F - 34.3 °F 55% 30.23 in 10.0 mi North 9.2 mph - N/A   Scattered Clouds
3:35 PM 51.4 °F - 33.1 °F 50% 30.22 in 10.0 mi NE 10.4 mph - N/A   Scattered Clouds
3:55 PM 50.5 °F - 34.0 °F 53% 30.22 in 10.0 mi North 10.4 mph - N/A   Mostly Cloudy
4:15 PM 48.6 °F - 33.3 °F 56% 30.23 in 10.0 mi North 9.2 mph - N/A   Mostly Cloudy
4:35 PM 49.8 °F - 32.4 °F 51% 30.23 in 10.0 mi North 5.8 mph - N/A   Scattered Clouds
4:55 PM 50.4 °F - 32.2 °F 50% 30.22 in 10.0 mi North 8.1 mph - N/A   Mostly Cloudy
5:15 PM 49.6 °F - 30.7 °F 48% 30.23 in 10.0 mi North 9.2 mph - N/A   Mostly Cloudy
5:35 PM 48.0 °F - 31.6 °F 53% 30.23 in 10.0 mi North 5.8 mph - N/A   Clear
5:55 PM 46.0 °F 43.1 °F 31.6 °F 57% 30.24 in 10.0 mi North 5.8 mph - N/A   Clear
6:15 PM 43.7 °F 41.1 °F 31.1 °F 61% 30.24 in 10.0 mi North 4.6 mph - N/A   Clear
6:35 PM 43.7 °F 40.3 °F 31.3 °F 62% 30.24 in 10.0 mi North 5.8 mph - N/A   Clear
6:55 PM 42.1 °F 39.2 °F 31.6 °F 67% 30.24 in 10.0 mi North 4.6 mph - N/A   Clear
7:15 PM 41.2 °F 38.2 °F 32.0 °F 70% 30.24 in 10.0 mi North 4.6 mph - N/A   Clear
7:35 PM 40.1 °F 36.9 °F 32.0 °F 73% 30.24 in 10.0 mi North 4.6 mph - N/A   Clear
7:55 PM 39.9 °F 37.8 °F 31.8 °F 73% 30.25 in 10.0 mi North 3.5 mph - N/A   Clear
8:15 PM 39.6 °F 37.4 °F 31.6 °F 73% 30.25 in 10.0 mi North 3.5 mph - N/A   Clear
8:35 PM 39.2 °F 35.9 °F 31.5 °F 74% 30.25 in 10.0 mi North 4.6 mph - N/A   Clear
8:55 PM 38.5 °F 36.1 °F 31.1 °F 75% 30.26 in 10.0 mi North 3.5 mph - N/A   Clear
9:15 PM 38.3 °F 34.8 °F 31.3 °F 76% 30.27 in 10.0 mi NNW 4.6 mph - N/A   Clear
9:35 PM 38.7 °F 34.3 °F 31.1 °F 74% 30.27 in 10.0 mi North 5.8 mph - N/A   Clear
10:35 PM 38.3 °F 33.9 °F 30.7 °F 74% 30.27 in 10.0 mi North 5.8 mph - N/A   Clear
10:55 PM 37.6 °F 33.1 °F 30.6 °F 76% 30.28 in 10.0 mi North 5.8 mph - N/A   Clear
11:15 PM 37.4 °F 32.1 °F 30.6 °F 76% 30.27 in 10.0 mi NNW 6.9 mph - N/A   Clear
11:35 PM 37.4 °F 32.1 °F 30.2 °F 75% 30.27 in 10.0 mi North 6.9 mph - N/A   Clear
11:55 PM 37.2 °F 31.2 °F 30.7 °F 77% 30.27 in 10.0 mi North 8.1 mph - N/A   Clear